| time (UTC) | temp F | wind direction | speed MPH | gust MPH | rain 1hr in | rain 24hr in | rain mn in | humidity % | barometer mb |
| 20260902072012 | 63 | 244 | 0.0 | 3.0 | 0.00 | 0.00 | 0.00 | 68 | 1018.6 |
| 20260902072000 | 63 | 266 | 0.0 | 3.0 | 0.00 | 0.00 | 0.00 | 68 | 1018.6 |
| 20260902071011 | 63 | 259 | 0.0 | 3.0 | 0.00 | 0.00 | 0.00 | 67 | 1018.5 |
| 20260902070512 | 63 | 313 | 1.0 | 3.0 | 0.00 | 0.00 | 0.00 | 68 | 1018.6 |
| 20260902070011 | 63 | 334 | 0.0 | 4.0 | 0.00 | 0.00 | 0.00 | 68 | 1018.6 |
| 20260902065512 | 63 | 295 | 0.0 | 4.0 | 0.00 | 0.00 | 0.00 | 67 | 1018.6 |
| 20260902065012 | 64 | 329 | 0.0 | 3.0 | 0.00 | 0.00 | 0.00 | 66 | 1018.5 |
| 20260902064511 | 64 | 248 | 0.0 | 7.0 | 0.00 | 0.00 | 0.00 | 66 | 1018.5 |
| 20260902064232 | 64 | 1 | 1.0 | 7.0 | 0.00 | 0.00 | 0.00 | 65 | 1018.4 |
| 20260902063732 | 64 | 285 | 2.0 | 9.0 | 0.00 | 0.00 | 0.00 | 65 | 1018.5 |
| 20260902063011 | 64 | 305 | 0.0 | 9.0 | 0.00 | 0.00 | 0.00 | 65 | 1018.4 |
| 20260902062510 | 64 | 296 | 1.0 | 4.0 | 0.00 | 0.00 | 0.00 | 65 | 1018.5 |
| 20260902062012 | 64 | 292 | 1.0 | 3.0 | 0.00 | 0.00 | 0.00 | 65 | 1018.5 |
| 20260902061510 | 64 | 333 | 0.0 | 3.0 | 0.00 | 0.00 | 0.00 | 64 | 1018.4 |
| 20260902061011 | 64 | 290 | 1.0 | 2.0 | 0.00 | 0.00 | 0.00 | 64 | 1018.5 |
| 20260902060509 | 64 | 298 | 0.0 | 2.0 | 0.00 | 0.00 | 0.00 | 63 | 1018.5 |
| 20260902060009 | 65 | 312 | 0.0 | 4.0 | 0.00 | 0.00 | 0.00 | 63 | 1018.5 |
| 20260902055510 | 65 | 293 | 0.0 | 4.0 | 0.00 | 0.00 | 0.00 | 63 | 1018.5 |
| 20260902055234 | 65 | 323 | 3.0 | 4.0 | 0.00 | 0.00 | 0.00 | 62 | 1018.5 |
| 20260902054510 | 66 | 321 | 2.0 | 3.0 | 0.00 | 0.00 | 0.00 | 59 | 1018.6 |
| 20260902054010 | 66 | 329 | 1.0 | 4.0 | 0.00 | 0.00 | 0.00 | 58 | 1018.6 |
| 20260902053513 | 66 | 341 | 0.0 | 4.0 | 0.00 | 0.00 | 0.00 | 56 | 1018.6 |
| 20260902053009 | 66 | 302 | 0.0 | 7.0 | 0.00 | 0.00 | 0.00 | 56 | 1018.7 |
| 20260902052508 | 66 | 282 | 1.0 | 7.0 | 0.00 | 0.00 | 0.00 | 55 | 1018.7 |
| 20260902052018 | 66 | 298 | 0.0 | 4.0 | 0.00 | 0.00 | 0.00 | 55 | 1018.8 |
| 20260902051509 | 67 | 278 | 0.0 | 1.0 | 0.00 | 0.00 | 0.00 | 54 | 1018.8 |
| 20260902051009 | 67 | 275 | 0.0 | 2.0 | 0.00 | 0.00 | 0.00 | 53 | 1018.7 |
| 20260902050734 | 68 | 293 | 0.0 | 2.0 | 0.00 | 0.00 | 0.00 | 51 | 1018.5 |
| 20260902050009 | 68 | 276 | 0.0 | 1.0 | 0.00 | 0.00 | 0.00 | 50 | 1018.6 |
| 20260902045730 | 69 | 255 | 0.0 | 1.0 | 0.00 | 0.00 | 0.00 | 46 | 1018.6 |
| 20260902045009 | 69 | 255 | 0.0 | 3.0 | 0.00 | 0.00 | 0.00 | 44 | 1018.6 |
| 20260902044735 | 70 | 255 | 0.0 | 4.0 | 0.00 | 0.00 | 0.00 | 42 | 1018.6 |
| 20260902044008 | 70 | 255 | 1.0 | 6.0 | 0.00 | 0.00 | 0.00 | 41 | 1018.5 |
| 20260902043508 | 70 | 251 | 2.0 | 6.0 | 0.00 | 0.00 | 0.00 | 42 | 1018.3 |
| 20260902043007 | 69 | 278 | 2.0 | 6.0 | 0.00 | 0.00 | 0.00 | 42 | 1018.3 |
| 20260902042508 | 69 | 282 | 0.0 | 2.0 | 0.00 | 0.00 | 0.00 | 44 | 1018.2 |
| 20260902042007 | 70 | 276 | 0.0 | 3.0 | 0.00 | 0.00 | 0.00 | 40 | 1018.3 |
| 20260902041509 | 70 | 197 | 1.0 | 4.0 | 0.00 | 0.00 | 0.00 | 39 | 1018.3 |
| 20260902041007 | 71 | 161 | 3.0 | 4.0 | 0.00 | 0.00 | 0.00 | 39 | 1018.3 |
| 20260902040508 | 71 | 162 | 2.0 | 3.0 | 0.00 | 0.00 | 0.00 | 39 | 1018.3 |
| 20260902040008 | 71 | 135 | 0.0 | 4.0 | 0.00 | 0.00 | 0.00 | 38 | 1018.2 |
| 20260902035506 | 71 | 168 | 2.0 | 4.0 | 0.00 | 0.00 | 0.00 | 38 | 1018.4 |
| 20260902035006 | 71 | 243 | 1.0 | 6.0 | 0.00 | 0.00 | 0.00 | 38 | 1018.3 |
| 20260902034507 | 72 | 169 | 0.0 | 6.0 | 0.00 | 0.00 | 0.00 | 38 | 1018.2 |
| 20260902034012 | 71 | 117 | 4.0 | 6.0 | 0.00 | 0.00 | 0.00 | 37 | 1018.0 |
| 20260902033736 | 71 | 200 | 0.0 | 2.0 | 0.00 | 0.00 | 0.00 | 38 | 1017.9 |
| 20260902033008 | 72 | 141 | 0.0 | 4.0 | 0.00 | 0.00 | 0.00 | 38 | 1017.8 |
| 20260902032506 | 72 | 164 | 2.0 | 11.0 | 0.00 | 0.00 | 0.00 | 37 | 1017.7 |
| 20260902032010 | 72 | 125 | 3.0 | 12.0 | 0.00 | 0.00 | 0.00 | 37 | 1017.6 |
| 20260902031505 | 72 | 210 | 4.0 | 12.0 | 0.00 | 0.00 | 0.00 | 36 | 1017.4 |
| 20260902031005 | 72 | 169 | 6.0 | 11.0 | 0.00 | 0.00 | 0.00 | 36 | 1017.4 |
| 20260902030511 | 73 | 171 | 6.0 | 17.0 | 0.00 | 0.00 | 0.00 | 36 | 1017.2 |
| 20260902030227 | 73 | 144 | 7.0 | 17.0 | 0.00 | 0.00 | 0.00 | 36 | 1017.1 |
| 20260902025509 | 73 | 130 | 6.0 | 12.0 | 0.00 | 0.00 | 0.00 | 35 | 1017.0 |
| 20260902025005 | 73 | 138 | 6.0 | 12.0 | 0.00 | 0.00 | 0.00 | 35 | 1017.0 |
| 20260902024506 | 73 | 214 | 3.0 | 12.0 | 0.00 | 0.00 | 0.00 | 35 | 1017.0 |
| 20260902024454 | 74 | 144 | 3.0 | 10.0 | 0.00 | 0.00 | 0.00 | 35 | 1017.0 |
| 20260902023504 | 74 | 131 | 4.0 | 10.0 | 0.00 | 0.00 | 0.00 | 34 | 1017.0 |
| 20260902023238 | 74 | 154 | 3.0 | 9.0 | 0.00 | 0.00 | 0.00 | 34 | 1017.0 |
| 20260902022505 | 75 | 124 | 2.0 | 10.0 | 0.00 | 0.00 | 0.00 | 33 | 1017.0 |
| 20260902022005 | 75 | 210 | 4.0 | 10.0 | 0.00 | 0.00 | 0.00 | 33 | 1016.9 |
| 20260902021506 | 76 | 155 | 5.0 | 10.0 | 0.00 | 0.00 | 0.00 | 32 | 1016.8 |
| 20260902021222 | 76 | 206 | 4.0 | 13.0 | 0.00 | 0.00 | 0.00 | 32 | 1016.7 |
| 20260902020504 | 76 | 133 | 6.0 | 13.0 | 0.00 | 0.00 | 0.00 | 32 | 1016.7 |
| 20260902020453 | 76 | 155 | 6.0 | 11.0 | 0.00 | 0.00 | 0.00 | 31 | 1016.4 |
| 20260902015505 | 77 | 127 | 5.0 | 11.0 | 0.00 | 0.00 | 0.00 | 31 | 1016.4 |
| 20260902015004 | 77 | 182 | 3.0 | 12.0 | 0.00 | 0.00 | 0.00 | 32 | 1016.4 |
| 20260902014508 | 78 | 131 | 7.0 | 12.0 | 0.00 | 0.00 | 0.00 | 32 | 1016.4 |
| 20260902014001 | 78 | 99 | 6.0 | 11.0 | 0.00 | 0.00 | 0.00 | 32 | 1016.5 |
| 20260902013505 | 78 | 142 | 4.0 | 10.0 | 0.00 | 0.00 | 0.00 | 31 | 1016.3 |
| 20260902013236 | 79 | 125 | 5.0 | 12.0 | 0.00 | 0.00 | 0.00 | 31 | 1016.3 |
| 20260902012504 | 79 | 110 | 2.0 | 12.0 | 0.00 | 0.00 | 0.00 | 31 | 1016.3 |
| 20260902012003 | 80 | 110 | 5.0 | 10.0 | 0.00 | 0.00 | 0.00 | 30 | 1016.2 |
| 20260902011505 | 80 | 124 | 2.0 | 11.0 | 0.00 | 0.00 | 0.00 | 30 | 1016.2 |
| 20260902011225 | 81 | 69 | 5.0 | 12.0 | 0.00 | 0.00 | 0.00 | 29 | 1016.1 |
| 20260902010727 | 81 | 100 | 6.0 | 12.0 | 0.00 | 0.00 | 0.00 | 29 | 1016.1 |
| 20260902010000 | 81 | 86 | 4.0 | 12.0 | 0.00 | 0.00 | 0.00 | 29 | 1016.2 |
| 20260902005501 | 81 | 102 | 6.0 | 15.0 | 0.00 | 0.00 | 0.00 | 29 | 1016.1 |
| 20260902005004 | 82 | 130 | 7.0 | 15.0 | 0.00 | 0.00 | 0.00 | 29 | 1016.1 |
| 20260902004503 | 82 | 128 | 3.0 | 10.0 | 0.00 | 0.00 | 0.00 | 29 | 1016.1 |
| 20260902004232 | 82 | 107 | 4.0 | 10.0 | 0.00 | 0.00 | 0.00 | 29 | 1016.1 |
| 20260902003722 | 82 | 106 | 3.0 | 11.0 | 0.00 | 0.00 | 0.00 | 28 | 1016.2 |
| 20260902003005 | 82 | 103 | 5.0 | 12.0 | 0.00 | 0.00 | 0.00 | 28 | 1016.2 |
| 20260902002502 | 82 | 127 | 4.0 | 12.0 | 0.00 | 0.00 | 0.00 | 28 | 1016.2 |
| 20260902002003 | 82 | 142 | 6.0 | 13.0 | 0.00 | 0.00 | 0.00 | 28 | 1016.2 |
| 20260902001502 | 82 | 104 | 6.0 | 14.0 | 0.00 | 0.00 | 0.00 | 28 | 1016.3 |
| 20260902001222 | 82 | 127 | 7.0 | 14.0 | 0.00 | 0.00 | 0.00 | 28 | 1016.4 |
| 20260902000502 | 82 | 106 | 3.0 | 13.0 | 0.00 | 0.00 | 0.00 | 29 | 1016.3 |
| 20260902000001 | 82 | 145 | 4.0 | 12.0 | 0.00 | 0.00 | 0.00 | 28 | 1016.4 |
| 20260901235503 | 82 | 118 | 5.0 | 15.0 | 0.00 | 0.00 | 0.00 | 29 | 1016.4 |
| 20260901235001 | 82 | 138 | 7.0 | 15.0 | 0.00 | 0.00 | 0.00 | 28 | 1016.5 |
| 20260901234501 | 81 | 134 | 6.0 | 12.0 | 0.00 | 0.00 | 0.00 | 28 | 1016.4 |
| 20260901234447 | 81 | 121 | 6.0 | 12.0 | 0.00 | 0.00 | 0.00 | 28 | 1016.5 |
| 20260901233725 | 81 | 127 | 6.0 | 13.0 | 0.00 | 0.00 | 0.00 | 28 | 1016.7 |
| 20260901232958 | 81 | 134 | 6.0 | 14.0 | 0.00 | 0.00 | 0.00 | 28 | 1016.7 |
| 20260901232458 | 81 | 125 | 7.0 | 14.0 | 0.00 | 0.00 | 0.00 | 28 | 1016.7 |
| 20260901232001 | 81 | 131 | 6.0 | 12.0 | 0.00 | 0.00 | 0.00 | 28 | 1016.7 |
| 20260901231501 | 81 | 118 | 5.0 | 14.0 | 0.00 | 0.00 | 0.00 | 28 | 1016.8 |
| 20260901231224 | 81 | 104 | 6.0 | 14.0 | 0.00 | 0.00 | 0.00 | 28 | 1016.8 |
| 20260901230500 | 81 | 102 | 5.0 | 12.0 | 0.00 | 0.00 | 0.00 | 28 | 1017.0 |
| 20260901225959 | 81 | 78 | 6.0 | 13.0 | 0.00 | 0.00 | 0.00 | 28 | 1017.0 |
| 20260901225502 | 81 | 82 | 6.0 | 13.0 | 0.00 | 0.00 | 0.00 | 27 | 1017.0 |
| 20260901224959 | 81 | 102 | 6.0 | 13.0 | 0.00 | 0.00 | 0.00 | 27 | 1017.0 |
| 20260901224500 | 81 | 137 | 7.0 | 13.0 | 0.00 | 0.00 | 0.00 | 27 | 1016.9 |
| 20260901224002 | 81 | 152 | 9.0 | 13.0 | 0.00 | 0.00 | 0.00 | 26 | 1016.9 |
| 20260901223500 | 82 | 94 | 4.0 | 15.0 | 0.00 | 0.00 | 0.00 | 26 | 1016.8 |
| 20260901223000 | 82 | 99 | 5.0 | 15.0 | 0.00 | 0.00 | 0.00 | 26 | 1016.9 |
| 20260901222500 | 82 | 100 | 6.0 | 11.0 | 0.00 | 0.00 | 0.00 | 26 | 1016.9 |
| 20260901222224 | 83 | 140 | 6.0 | 10.0 | 0.00 | 0.00 | 0.00 | 25 | 1016.8 |
| 20260901221947 | 83 | 116 | 5.0 | 9.0 | 0.00 | 0.00 | 0.00 | 25 | 1016.8 |
| 20260901220959 | 83 | 107 | 3.0 | 10.0 | 0.00 | 0.00 | 0.00 | 25 | 1016.8 |
| 20260901220458 | 83 | 90 | 3.0 | 12.0 | 0.00 | 0.00 | 0.00 | 25 | 1016.8 |
| 20260901215956 | 84 | 121 | 7.0 | 12.0 | 0.00 | 0.00 | 0.00 | 24 | 1016.8 |
| 20260901215455 | 85 | 113 | 4.0 | 13.0 | 0.00 | 0.00 | 0.00 | 24 | 1016.8 |
| 20260901215000 | 84 | 63 | 5.0 | 13.0 | 0.00 | 0.00 | 0.00 | 24 | 1016.8 |
| 20260901214458 | 85 | 117 | 4.0 | 11.0 | 0.00 | 0.00 | 0.00 | 24 | 1016.8 |
| 20260901213957 | 84 | 73 | 4.0 | 9.0 | 0.00 | 0.00 | 0.00 | 24 | 1017.0 |
| 20260901213458 | 83 | 83 | 4.0 | 11.0 | 0.00 | 0.00 | 0.00 | 25 | 1017.1 |
| 20260901212958 | 83 | 114 | 5.0 | 11.0 | 0.00 | 0.00 | 0.00 | 24 | 1017.1 |
| 20260901212458 | 83 | 83 | 4.0 | 9.0 | 0.00 | 0.00 | 0.00 | 25 | 1017.2 |
| 20260901211958 | 83 | 75 | 4.0 | 9.0 | 0.00 | 0.00 | 0.00 | 25 | 1017.2 |
| 20260901211736 | 84 | 65 | 3.0 | 6.0 | 0.00 | 0.00 | 0.00 | 25 | 1017.2 |
| 20260901210957 | 84 | 113 | 3.0 | 7.0 | 0.00 | 0.00 | 0.00 | 25 | 1017.2 |
| 20260901210458 | 84 | 37 | 4.0 | 7.0 | 0.00 | 0.00 | 0.00 | 25 | 1017.2 |
| 20260901205957 | 84 | 130 | 3.0 | 7.0 | 0.00 | 0.00 | 0.00 | 26 | 1017.4 |
| 20260901205457 | 83 | 135 | 3.0 | 11.0 | 0.00 | 0.00 | 0.00 | 26 | 1017.4 |
| 20260901204957 | 82 | 73 | 2.0 | 11.0 | 0.00 | 0.00 | 0.00 | 27 | 1017.4 |
| 20260901204723 | 82 | 71 | 3.0 | 9.0 | 0.00 | 0.00 | 0.00 | 27 | 1017.5 |
| 20260901204219 | 83 | 65 | 3.0 | 9.0 | 0.00 | 0.00 | 0.00 | 26 | 1017.6 |
| 20260901203456 | 83 | 131 | 3.0 | 9.0 | 0.00 | 0.00 | 0.00 | 26 | 1017.6 |
| 20260901202954 | 82 | 79 | 4.0 | 9.0 | 0.00 | 0.00 | 0.00 | 27 | 1017.6 |
| 20260901202455 | 82 | 82 | 3.0 | 11.0 | 0.00 | 0.00 | 0.00 | 27 | 1017.7 |
| 20260901201957 | 82 | 135 | 4.0 | 11.0 | 0.00 | 0.00 | 0.00 | 28 | 1017.8 |
| 20260901201457 | 81 | 89 | 2.0 | 7.0 | 0.00 | 0.00 | 0.00 | 29 | 1017.8 |
| 20260901200956 | 81 | 104 | 2.0 | 6.0 | 0.00 | 0.00 | 0.00 | 29 | 1017.9 |
| 20260901200727 | 80 | 59 | 2.0 | 4.0 | 0.00 | 0.00 | 0.00 | 30 | 1018.0 |
| 20260901195956 | 80 | 83 | 2.0 | 4.0 | 0.00 | 0.00 | 0.00 | 31 | 1018.0 |
| 20260901195456 | 79 | 55 | 1.0 | 5.0 | 0.00 | 0.00 | 0.00 | 32 | 1018.2 |
| 20260901194956 | 78 | 107 | 0.0 | 5.0 | 0.00 | 0.00 | 0.00 | 33 | 1018.3 |
| 20260901194457 | 78 | 90 | 1.0 | 3.0 | 0.00 | 0.00 | 0.00 | 34 | 1018.3 |
| 20260901194220 | 78 | 251 | 0.0 | 4.0 | 0.00 | 0.00 | 0.00 | 33 | 1018.3 |
| 20260901193457 | 78 | 110 | 2.0 | 4.0 | 0.00 | 0.00 | 0.00 | 33 | 1018.5 |
| 20260901192956 | 78 | 133 | 3.0 | 4.0 | 0.00 | 0.00 | 0.00 | 33 | 1018.5 |
| 20260901192455 | 78 | 10 | 3.0 | 5.0 | 0.00 | 0.00 | 0.00 | 32 | 1018.6 |
| 20260901191955 | 79 | 66 | 1.0 | 6.0 | 0.00 | 0.00 | 0.00 | 33 | 1018.8 |
| 20260901191455 | 78 | 100 | 2.0 | 6.0 | 0.00 | 0.00 | 0.00 | 34 | 1018.9 |
| 20260901190957 | 78 | 47 | 1.0 | 5.0 | 0.00 | 0.00 | 0.00 | 32 | 1019.0 |
| 20260901190711 | 77 | 94 | 1.0 | 4.0 | 0.00 | 0.00 | 0.00 | 31 | 1019.1 |
| 20260901190213 | 77 | 117 | 2.0 | 4.0 | 0.00 | 0.00 | 0.00 | 32 | 1019.3 |
| 20260901185454 | 76 | 83 | 1.0 | 4.0 | 0.00 | 0.00 | 0.00 | 32 | 1019.4 |
| 20260901184954 | 76 | 62 | 2.0 | 4.0 | 0.00 | 0.00 | 0.00 | 33 | 1019.4 |
| 20260901184454 | 75 | 109 | 2.0 | 4.0 | 0.00 | 0.00 | 0.00 | 33 | 1019.4 |
| 20260901183954 | 75 | 144 | 1.0 | 4.0 | 0.00 | 0.00 | 0.00 | 35 | 1019.5 |
| 20260901183454 | 74 | 96 | 1.0 | 4.0 | 0.00 | 0.00 | 0.00 | 36 | 1019.5 |
| 20260901182956 | 74 | 51 | 2.0 | 4.0 | 0.00 | 0.00 | 0.00 | 35 | 1019.6 |
| 20260901182450 | 73 | 51 | 0.0 | 3.0 | 0.00 | 0.00 | 0.00 | 36 | 1019.8 |
| 20260901181951 | 73 | 48 | 1.0 | 4.0 | 0.00 | 0.00 | 0.00 | 37 | 1019.9 |
| 20260901181452 | 73 | 83 | 2.0 | 4.0 | 0.00 | 0.00 | 0.00 | 39 | 1019.9 |
| 20260901181219 | 72 | 68 | 1.0 | 3.0 | 0.00 | 0.00 | 0.00 | 40 | 1020.0 |
| 20260901180454 | 72 | 78 | 1.0 | 3.0 | 0.00 | 0.00 | 0.00 | 40 | 1020.1 |
| 20260901175959 | 72 | 71 | 0.0 | 3.0 | 0.00 | 0.00 | 0.00 | 40 | 1020.2 |
| 20260901175453 | 72 | 114 | 1.0 | 3.0 | 0.00 | 0.00 | 0.00 | 40 | 1020.3 |
| 20260901175220 | 71 | 65 | 1.0 | 2.0 | 0.00 | 0.00 | 0.00 | 40 | 1020.2 |
| 20260901174453 | 70 | 154 | 0.0 | 3.0 | 0.00 | 0.00 | 0.00 | 44 | 1020.3 |
| 20260901173953 | 69 | 245 | 2.0 | 3.0 | 0.00 | 0.00 | 0.00 | 44 | 1020.3 |
| 20260901173453 | 69 | 329 | 1.0 | 3.0 | 0.00 | 0.00 | 0.00 | 44 | 1020.3 |
| 20260901172954 | 68 | 121 | 0.0 | 1.0 | 0.00 | 0.00 | 0.00 | 46 | 1020.4 |
| 20260901172453 | 67 | 113 | 0.0 | 1.0 | 0.00 | 0.00 | 0.00 | 47 | 1020.6 |
| 20260901172213 | 67 | 321 | 0.0 | 3.0 | 0.00 | 0.00 | 0.00 | 48 | 1020.7 |
| 20260901171452 | 66 | 344 | 0.0 | 3.0 | 0.00 | 0.00 | 0.00 | 50 | 1020.6 |
| 20260901170952 | 65 | 66 | 0.0 | 2.0 | 0.00 | 0.00 | 0.00 | 51 | 1020.8 |
| 20260901170452 | 65 | 124 | 1.0 | 2.0 | 0.00 | 0.00 | 0.00 | 52 | 1020.9 |
| 20260901165952 | 65 | 45 | 0.0 | 2.0 | 0.00 | 0.00 | 0.00 | 53 | 1021.0 |
| 20260901165715 | 64 | 49 | 1.0 | 2.0 | 0.00 | 0.00 | 0.00 | 54 | 1021.1 |
| 20260901164954 | 64 | 78 | 1.0 | 2.0 | 0.00 | 0.00 | 0.00 | 55 | 1021.4 |
| 20260901164453 | 63 | 90 | 0.0 | 2.0 | 0.00 | 0.00 | 0.00 | 56 | 1021.5 |
| 20260901163952 | 62 | 113 | 0.0 | 0.0 | 0.00 | 0.00 | 0.00 | 58 | 1021.5 |
| 20260901163451 | 62 | 217 | 0.0 | 0.0 | 0.00 | 0.00 | 0.00 | 59 | 1021.6 |
| 20260901162951 | 61 | 217 | 0.0 | 0.0 | 0.00 | 0.00 | 0.00 | 60 | 1021.5 |
| 20260901162456 | 61 | 217 | 0.0 | 0.0 | 0.00 | 0.00 | 0.00 | 60 | 1021.5 |
| 20260901161951 | 60 | 217 | 0.0 | 0.0 | 0.00 | 0.00 | 0.00 | 60 | 1021.5 |
| 20260901161450 | 60 | 188 | 0.0 | 0.0 | 0.00 | 0.00 | 0.00 | 64 | 1021.6 |
| 20260901160952 | 60 | 188 | 0.0 | 0.0 | 0.00 | 0.00 | 0.00 | 64 | 1021.5 |
| 20260901160450 | 59 | 188 | 0.0 | 0.0 | 0.00 | 0.00 | 0.00 | 66 | 1021.5 |
| 20260901155951 | 58 | 188 | 0.0 | 0.0 | 0.00 | 0.00 | 0.00 | 67 | 1021.6 |
| 20260901155455 | 57 | 172 | 0.0 | 0.0 | 0.00 | 0.00 | 0.00 | 70 | 1021.7 |
| 20260901154950 | 56 | 157 | 0.0 | 0.0 | 0.00 | 0.00 | 0.00 | 72 | 1021.8 |
| 20260901154450 | 55 | 157 | 0.0 | 0.0 | 0.00 | 0.00 | 0.00 | 75 | 1021.8 |
| 20260901153950 | 55 | 157 | 0.0 | 0.0 | 0.00 | 0.00 | 0.00 | 75 | 1021.9 |
| 20260901153450 | 54 | 157 | 0.0 | 0.0 | 0.00 | 0.00 | 0.00 | 77 | 1021.9 |
| 20260901152950 | 54 | 157 | 0.0 | 0.0 | 0.00 | 0.00 | 0.00 | 78 | 1022.0 |
| 20260901152451 | 54 | 157 | 0.0 | 0.0 | 0.00 | 0.00 | 0.00 | 77 | 1022.0 |
| 20260901151950 | 53 | 157 | 0.0 | 0.0 | 0.00 | 0.00 | 0.00 | 79 | 1022.1 |
| 20260901151719 | 52 | 154 | 0.0 | 0.0 | 0.00 | 0.00 | 0.00 | 81 | 1022.0 |
| 20260901150950 | 52 | 154 | 0.0 | 0.0 | 0.00 | 0.00 | 0.00 | 82 | 1022.1 |
| 20260901150709 | 51 | 152 | 0.0 | 0.0 | 0.00 | 0.00 | 0.00 | 82 | 1022.2 |
| 20260901145950 | 51 | 154 | 0.0 | 0.0 | 0.00 | 0.00 | 0.00 | 82 | 1022.2 |
| 20260901145450 | 51 | 154 | 0.0 | 0.0 | 0.00 | 0.00 | 0.00 | 81 | 1022.2 |
| 20260901144950 | 50 | 154 | 0.0 | 0.0 | 0.00 | 0.00 | 0.00 | 82 | 1022.2 |
| 20260901144450 | 49 | 152 | 0.0 | 0.0 | 0.00 | 0.00 | 0.00 | 85 | 1022.2 |
| 20260901143952 | 48 | 161 | 0.0 | 0.0 | 0.00 | 0.00 | 0.00 | 87 | 1022.4 |
| 20260901143449 | 47 | 161 | 0.0 | 0.0 | 0.00 | 0.00 | 0.00 | 87 | 1022.3 |
| 20260901142950 | 47 | 161 | 0.0 | 0.0 | 0.00 | 0.00 | 0.00 | 86 | 1022.3 |
| 20260901142448 | 47 | 161 | 0.0 | 0.0 | 0.00 | 0.00 | 0.00 | 87 | 1022.3 |
| 20260901141948 | 47 | 161 | 0.0 | 0.0 | 0.00 | 0.00 | 0.00 | 87 | 1022.2 |
| 20260901141448 | 47 | 161 | 0.0 | 0.0 | 0.00 | 0.00 | 0.00 | 86 | 1022.2 |
| 20260901140948 | 47 | 161 | 0.0 | 0.0 | 0.00 | 0.00 | 0.00 | 85 | 1022.2 |
| 20260901140449 | 47 | 161 | 0.0 | 0.0 | 0.00 | 0.00 | 0.00 | 85 | 1022.1 |
| 20260901135947 | 47 | 161 | 0.0 | 0.0 | 0.00 | 0.00 | 0.00 | 85 | 1022.2 |
| 20260901135449 | 47 | 161 | 0.0 | 0.0 | 0.00 | 0.00 | 0.00 | 84 | 1022.2 |
| 20260901134948 | 47 | 161 | 0.0 | 0.0 | 0.00 | 0.00 | 0.00 | 84 | 1022.1 |
| 20260901134449 | 47 | 161 | 0.0 | 0.0 | 0.00 | 0.00 | 0.00 | 85 | 1022.1 |
| 20260901133948 | 47 | 149 | 0.0 | 0.0 | 0.00 | 0.00 | 0.00 | 85 | 1022.1 |
| 20260901133447 | 46 | 151 | 0.0 | 0.0 | 0.00 | 0.00 | 0.00 | 85 | 1022.0 |
| 20260901132950 | 47 | 149 | 0.0 | 0.0 | 0.00 | 0.00 | 0.00 | 84 | 1022.0 |
| 20260901132447 | 47 | 149 | 0.0 | 0.0 | 0.00 | 0.00 | 0.00 | 83 | 1022.0 |
| 20260901131947 | 47 | 151 | 0.0 | 0.0 | 0.00 | 0.00 | 0.00 | 83 | 1022.0 |
| 20260901131447 | 47 | 149 | 0.0 | 0.0 | 0.00 | 0.00 | 0.00 | 83 | 1022.0 |
| 20260901130949 | 47 | 148 | 0.0 | 0.0 | 0.00 | 0.00 | 0.00 | 83 | 1022.0 |
| 20260901130447 | 47 | 145 | 0.0 | 0.0 | 0.00 | 0.00 | 0.00 | 83 | 1021.9 |
| 20260901130211 | 48 | 159 | 0.0 | 0.0 | 0.00 | 0.00 | 0.00 | 82 | 1021.9 |
| 20260901125446 | 49 | 213 | 0.0 | 2.0 | 0.00 | 0.00 | 0.00 | 80 | 1022.0 |
| 20260901124946 | 48 | 212 | 0.0 | 2.0 | 0.00 | 0.00 | 0.00 | 81 | 1022.0 |
| 20260901124458 | 48 | 157 | 0.0 | 0.0 | 0.00 | 0.00 | 0.00 | 82 | 1022.1 |
| 20260901123946 | 48 | 8 | 0.0 | 0.0 | 0.00 | 0.00 | 0.00 | 82 | 1022.0 |
| 20260901123447 | 49 | 234 | 0.0 | 0.0 | 0.00 | 0.00 | 0.00 | 81 | 1022.1 |
| 20260901122947 | 49 | 234 | 0.0 | 0.0 | 0.00 | 0.00 | 0.00 | 80 | 1022.1 |
| 20260901122447 | 49 | 219 | 0.0 | 0.0 | 0.00 | 0.00 | 0.00 | 82 | 1022.2 |
| 20260901121946 | 48 | 255 | 0.0 | 0.0 | 0.00 | 0.00 | 0.00 | 83 | 1022.2 |
| 20260901121446 | 47 | 255 | 0.0 | 0.0 | 0.00 | 0.00 | 0.00 | 84 | 1022.2 |
| 20260901120945 | 47 | 255 | 0.0 | 0.0 | 0.00 | 0.00 | 0.00 | 84 | 1022.2 |
| 20260901120445 | 47 | 255 | 0.0 | 0.0 | 0.00 | 0.00 | 0.00 | 83 | 1022.3 |
| 20260901115946 | 47 | 255 | 0.0 | 0.0 | 0.00 | 0.00 | 0.00 | 84 | 1022.3 |
| 20260901115445 | 47 | 255 | 0.0 | 0.0 | 0.00 | 0.00 | 0.00 | 85 | 1022.3 |
| 20260901114946 | 47 | 271 | 0.0 | 0.0 | 0.00 | 0.00 | 0.00 | 85 | 1022.5 |
| 20260901114445 | 47 | 271 | 0.0 | 0.0 | 0.00 | 0.00 | 0.00 | 86 | 1022.5 |
| 20260901113947 | 47 | 271 | 0.0 | 0.0 | 0.00 | 0.00 | 0.00 | 86 | 1022.5 |
| 20260901113444 | 47 | 271 | 0.0 | 0.0 | 0.00 | 0.00 | 0.00 | 86 | 1022.6 |
| 20260901112944 | 47 | 271 | 0.0 | 0.0 | 0.00 | 0.00 | 0.00 | 85 | 1022.6 |
| 20260901112444 | 48 | 235 | 0.0 | 0.0 | 0.00 | 0.00 | 0.00 | 84 | 1022.5 |
| 20260901111947 | 48 | 235 | 0.0 | 0.0 | 0.00 | 0.00 | 0.00 | 83 | 1022.6 |
| 20260901111444 | 48 | 235 | 0.0 | 0.0 | 0.00 | 0.00 | 0.00 | 83 | 1022.6 |
| 20260901110944 | 48 | 190 | 0.0 | 0.0 | 0.00 | 0.00 | 0.00 | 84 | 1022.6 |
| 20260901110711 | 48 | 190 | 0.0 | 0.0 | 0.00 | 0.00 | 0.00 | 83 | 1022.7 |
| 20260901105944 | 48 | 190 | 0.0 | 0.0 | 0.00 | 0.00 | 0.00 | 81 | 1022.9 |
| 20260901105712 | 49 | 190 | 0.0 | 0.0 | 0.00 | 0.00 | 0.00 | 81 | 1022.7 |
| 20260901104944 | 49 | 190 | 0.0 | 0.0 | 0.00 | 0.00 | 0.00 | 81 | 1022.7 |
| 20260901104711 | 49 | 190 | 0.0 | 0.0 | 0.00 | 0.00 | 0.00 | 80 | 1022.7 |
| 20260901104201 | 49 | 190 | 0.0 | 0.0 | 0.00 | 0.00 | 0.00 | 80 | 1022.9 |
| 20260901103443 | 49 | 190 | 0.0 | 0.0 | 0.00 | 0.00 | 0.00 | 80 | 1022.9 |
| 20260901102943 | 50 | 190 | 0.0 | 0.0 | 0.00 | 0.00 | 0.00 | 79 | 1022.7 |
| 20260901102712 | 50 | 190 | 0.0 | 0.0 | 0.00 | 0.00 | 0.00 | 78 | 1022.7 |
| 20260901101944 | 51 | 190 | 0.0 | 0.0 | 0.00 | 0.00 | 0.00 | 77 | 1022.7 |
| 20260901101443 | 51 | 190 | 0.0 | 0.0 | 0.00 | 0.00 | 0.00 | 75 | 1022.7 |
| 20260901100944 | 51 | 190 | 0.0 | 0.0 | 0.00 | 0.00 | 0.00 | 76 | 1022.7 |
| 20260901100442 | 51 | 231 | 0.0 | 0.0 | 0.00 | 0.00 | 0.00 | 77 | 1022.6 |
| 20260901095945 | 51 | 231 | 0.0 | 0.0 | 0.00 | 0.00 | 0.00 | 75 | 1022.7 |
| 20260901095709 | 51 | 231 | 0.0 | 0.0 | 0.00 | 0.00 | 0.00 | 76 | 1022.7 |
| 20260901094942 | 51 | 231 | 0.0 | 0.0 | 0.00 | 0.00 | 0.00 | 78 | 1022.7 |
| 20260901094443 | 51 | 231 | 0.0 | 0.0 | 0.00 | 0.00 | 0.00 | 76 | 1022.5 |
| 20260901093942 | 51 | 231 | 0.0 | 0.0 | 0.00 | 0.00 | 0.00 | 74 | 1022.6 |
| 20260901093443 | 51 | 230 | 0.0 | 0.0 | 0.00 | 0.00 | 0.00 | 77 | 1022.6 |
| 20260901092942 | 51 | 230 | 0.0 | 0.0 | 0.00 | 0.00 | 0.00 | 76 | 1022.6 |
| 20260901092443 | 51 | 230 | 0.0 | 0.0 | 0.00 | 0.00 | 0.00 | 75 | 1022.6 |
| 20260901091941 | 51 | 231 | 0.0 | 0.0 | 0.00 | 0.00 | 0.00 | 77 | 1022.7 |
| 20260901091441 | 51 | 231 | 0.0 | 0.0 | 0.00 | 0.00 | 0.00 | 78 | 1022.6 |
| 20260901090942 | 52 | 223 | 0.0 | 0.0 | 0.00 | 0.00 | 0.00 | 75 | 1022.6 |
| 20260901090440 | 52 | 223 | 0.0 | 0.0 | 0.00 | 0.00 | 0.00 | 74 | 1022.6 |
| 20260901085942 | 52 | 223 | 0.0 | 0.0 | 0.00 | 0.00 | 0.00 | 74 | 1022.7 |
| 20260901085440 | 52 | 228 | 0.0 | 0.0 | 0.00 | 0.00 | 0.00 | 76 | 1022.6 |
| 20260901084943 | 52 | 228 | 0.0 | 0.0 | 0.00 | 0.00 | 0.00 | 76 | 1022.6 |
| 20260901084706 | 53 | 228 | 0.0 | 0.0 | 0.00 | 0.00 | 0.00 | 74 | 1022.5 |
| 20260901083942 | 53 | 228 | 0.0 | 0.0 | 0.00 | 0.00 | 0.00 | 73 | 1022.7 |
| 20260901083440 | 53 | 216 | 0.0 | 0.0 | 0.00 | 0.00 | 0.00 | 76 | 1022.7 |
| 20260901082941 | 54 | 216 | 0.0 | 0.0 | 0.00 | 0.00 | 0.00 | 74 | 1022.6 |
| 20260901082932 | 55 | 216 | 0.0 | 0.0 | 0.00 | 0.00 | 0.00 | 67 | 1022.7 |
| 20260901081940 | 55 | 216 | 0.0 | 0.0 | 0.00 | 0.00 | 0.00 | 66 | 1022.7 |
| 20260901081441 | 55 | 216 | 0.0 | 0.0 | 0.00 | 0.00 | 0.00 | 67 | 1022.7 |
| 20260901080940 | 56 | 216 | 0.0 | 0.0 | 0.00 | 0.00 | 0.00 | 66 | 1022.7 |
| 20260901080932 | 56 | 216 | 0.0 | 0.0 | 0.00 | 0.00 | 0.00 | 65 | 1022.7 |
| 20260901080200 | 56 | 216 | 0.0 | 0.0 | 0.00 | 0.00 | 0.00 | 65 | 1022.7 |
| 20260901075442 | 56 | 216 | 0.0 | 0.0 | 0.00 | 0.00 | 0.00 | 65 | 1022.9 |
| 20260901074939 | 56 | 216 | 0.0 | 0.0 | 0.00 | 0.00 | 0.00 | 66 | 1022.9 |
| 20260901074439 | 56 | 216 | 0.0 | 0.0 | 0.00 | 0.00 | 0.00 | 66 | 1022.7 |
| 20260901073940 | 56 | 231 | 0.0 | 0.0 | 0.00 | 0.00 | 0.00 | 65 | 1022.7 |
| 20260901073439 | 56 | 245 | 0.0 | 0.0 | 0.00 | 0.00 | 0.00 | 64 | 1022.6 |
| 20260901072941 | 56 | 245 | 0.0 | 0.0 | 0.00 | 0.00 | 0.00 | 65 | 1022.7 |
| 20260901072704 | 56 | 245 | 0.0 | 0.0 | 0.00 | 0.00 | 0.00 | 64 | 1022.7 |